Probability
0 0 0 0 0 0 0 0 0 0 0 0 0 0 0 0 0 0 0 0 0 0 0 0 0 0 0 0 0 0 0 0 0 0 0 0 0 0
0 0 0 0 0 0 0 0 0 0 0 0 0 0 0 0 0 0 0 0 0 0 0 0 0 0 0 0 0 0 0 0 0 0 0 0 0 0
0 0 0 0 0 0 0 0 0 0 0 0 0 0 0 0 0 0 0 0 0 0 0 0 0 0 0 0 0 0 0 0 0 0 0 0 0 0
0 0 0 0 0 0 0 0 0 0 0 0 0 0 0 0 0 0 0 0 0 0 0 0 0 0 0 0 0 0 0 0 0 0 0 0 0 0
0 0 0 0 0 0 0 0 0 0 0 0 0 0 0 0 0 0 0 0 0 0 0 0 0 0 0 0 0 0 0 0 0 0 0 0 0 0
0 0 0 0 0 0 0 0 0 0 0 0 0 0 0 0 0 0 0 0 0 0 0 0 0 0 0 0 0 0 0 0 0 0 0 0 0 0
0 0 0 0 0 0 0 0 0 0 0 0 0 0 0 0 0 0 0 0 0 0 0 0 0 0 0 0 0 0 0 0 0 0 0 0 0 0
0 0 0 0 0 0 0 0 0 0 0 0 0 0 0 0 0 0 0 0 0 0 0 0 0 0 0 0 0 0 0 0 0 0 0 0 0 0
0 0 0 0 0 0 0 0 0 0 0 0 0 0 0 0 0 0 0 0 0 0 0 0 0 0 0 0 0 0 0 0 0 0 0 0 0 0
0 0 0 0 0 0 0 0 0 0 0 0 0 0 0 0 0 0 0 0 0 0 0 0 0 0 0 0 0 0 0 0 0 0 0 0 0 0
0 0 0 0 0 0 0 0 0 0 0 0 0 0 0 0 0 0 0 0 0 0 0 0 0 0 0 0 0 0 0 0 0 0 0 0 0 0
0 0 0 0 0 0 0 0 0 0 0 0 0 0 0 0 0 0 0 0 0 0 0 0 0 0 0 0 0 0 0 0 0 0 0 0 0 0
0 0 0 0 0 0 0 0 0 0 0 0 0 0 0 0 0 0 0 0 0 0 0 0 0 0 0 0 0 0 0 0 0 0 0 0 0 0
0 0 0 0 0 0 0 0 0 0 0 0 0 0 0 0 0 0 0 0 0 0 0 0 0 0 0 0 0 0 0 0 0 0 0 0 0 0
0 0 0 0 0 0 0 0 0 0 0 0 0 0 0 0 0 0 0 0 0 0 0 0 0 0 0 0 0 0 0 0 0 0 0 0 0 0
0 0 0 0 0 0 0 0 0 0 0 0 0 0 0 0 0 0 0 0 0 0 0 0 0 0 0 0 0 0 0 0 0 0 0 0 0 0
0 0 0 0 0 0 0 0 0 0 0 0 0 0 0 0 0 0 0 0 0 0 0 0 0 0 0 0 0 0 0 0 0 0 0 0 0 0
0 0 0 0 0 0 0 0 0 0 0 0 0 0 0 0 0 0 0 0 0 0 0 0 0 0 0 0 0 0 0 0 0 0 0 0 0 0
0 0 0 0 0 0 0 0 0 0 0 0 0 0 0 0 0 0 0 0 0 0 0 0 0 0 0 0 0 0 0 0 0 0 0 0 0 0
0 0 0 0 0 0 0 0 0 0 0 0 0 0 0 0 0 0 0 0 0 0 0 0 0 0 0 0 0 0 0 0 0 0 0 0 0 0
0 0 0 0 0 0 0 0 0 0 0 0 0 0 0 0 0 0 0 0 0 0 0 0 0 0 0 0 0 0 0 0 0 0 0 0 0 0
0 0 0 0 0 0 0 0 0 0 0 0 0 0 0 0 0 0 0 0 0 0 0 0 0 0 0 0 0 0 0 0 0 0 0 0 0 0
0 0 0 0 0 0 0 0 0 0 0 0 0 0 0 0 0 0 0 0 0 0 0 0 0 0 0 0 0 0 0 0 0 0 0 0 0 0
Wind_Speed
2 2 2 1 1 2 2 3 3 3 3 2 2 1 1 1 1 1 1 0 1 2 2 2 2 2 2 3 4 4 4 5 6 7 8 9 10 10
2 3 2 1 1 1 1 1 1 2 2 1 1 1 1 1 0 1 1 0 1 2 2 2 2 2 2 3 4 4 5 6 6 7 8 9 10 11
3 3 2 2 2 1 1 1 1 1 2 1 1 1 1 1 1 1 1 1 1 1 2 2 2 2 3 3 4 5 5 6 7 8 9 10 11 12
4 3 3 2 2 2 1 1 1 1 2 2 1 1 1 1 1 1 1 1 2 2 2 2 2 3 3 4 4 5 6 6 7 8 9 10 11 12
4 4 3 3 3 2 2 1 1 1 1 1 1 1 1 1 1 1 1 2 2 2 2 2 3 3 4 5 5 5 6 7 8 8 9 10 11 12
3 3 3 3 3 3 2 2 2 1 2 2 2 1 1 1 1 1 1 2 2 2 2 3 3 4 5 5 5 5 6 7 8 9 10 10 11 12
3 2 2 3 2 2 2 2 2 2 2 2 2 1 1 1 2 1 2 2 2 2 2 3 3 3 3 4 5 6 7 8 9 10 10 11 11 12
3 3 2 3 3 3 2 2 2 3 3 2 2 3 3 2 1 1 2 2 2 1 3 4 3 4 3 3 6 8 9 9 9 10 11 11 12 12
3 3 2 2 3 3 3 2 1 1 3 3 4 4 3 3 3 3 3 3 4 2 3 4 3 4 4 4 8 9 9 9 10 11 12 12 13 14
3 3 3 3 3 3 2 1 1 1 2 3 3 3 3 3 3 3 3 3 3 2 3 4 4 4 5 5 7 9 9 10 11 11 12 13 13 14
2 3 3 3 4 4 3 2 2 1 0 1 2 2 2 2 2 2 2 3 3 3 2 3 3 5 5 5 5 8 9 10 11 12 13 13 13 14
2 2 3 4 4 4 4 3 3 3 2 1 1 1 1 1 2 3 3 3 3 3 1 2 3 3 4 3 4 5 6 9 11 12 12 12 13 9
3 2 2 4 5 5 4 3 3 2 2 2 2 2 1 1 2 2 2 3 3 4 2 2 3 3 4 5 5 5 5 6 6 8 10 12 12 11
3 3 3 5 5 5 4 4 4 3 2 2 2 2 2 2 2 2 2 3 3 5 4 4 3 4 5 6 6 5 5 6 6 6 6 9 10 12
3 3 3 4 4 4 4 5 4 3 3 3 3 3 2 2 2 2 2 2 3 4 4 4 4 5 5 6 6 6 6 6 5 5 6 7 7 7
3 3 4 4 3 3 3 4 3 3 3 3 3 2 2 2 2 2 2 2 3 3 4 4 5 5 6 7 7 7 6 6 6 6 7 7 7 7
4 3 3 3 3 3 3 3 3 3 3 3 3 3 2 2 2 2 2 2 3 4 4 3 4 5 7 7 7 7 7 6 6 6 7 8 8 7
5 4 4 4 4 4 4 3 3 3 3 3 3 3 3 3 3 3 3 3 4 4 4 4 3 4 5 5 7 7 6 6 6 7 7 8 10 8
5 4 4 4 4 4 4 4 4 3 3 3 3 3 3 3 3 3 3 4 4 4 4 4 4 4 5 7 5 5 6 6 7 7 7 8 10 10
4 4 4 4 4 4 4 4 3 3 3 3 4 4 4 4 4 4 4 4 5 5 5 4 4 4 5 7 7 6 7 7 6 8 8 8 9 11
4 4 4 4 4 4 4 4 4 4 4 4 4 4 4 4 4 4 5 6 6 5 6 6 5 6 5 4 6 7 6 7 9 8 8 8 9 8
4 4 4 4 3 3 3 3 4 4 4 4 4 4 4 4 5 5 5 5 5 6 6 5 4 4 4 6 8 8 8 8 8 11 12 11 7 7
3 3 3 3 3 3 3 4 5 4 4 4 4 4 4 4 5 5 5 5 5 6 6 5 5 5 5 6 7 8 9 9 7 7 7 9 12 15
Wind_Direction
190 193 200 193 189 189 183 191 190 196 203 189 183 214 237 240 214 209 232 77 303 301 312 320 338 337 332 327 324 326 321 316 314 314 313 311 312 310
178 179 181 180 177 182 179 200 225 215 209 181 187 201 274 266 220 245 256 254 251 272 297 322 330 319 321 320 320 317 312 309 310 309 308 309 310 311
171 176 186 182 168 168 159 157 187 209 208 209 194 194 253 247 219 260 293 285 286 296 300 299 301 300 305 306 308 306 304 304 304 304 306 307 306 307
182 184 190 171 170 177 161 158 178 210 207 211 211 217 255 241 245 297 328 317 303 313 296 280 278 286 297 299 299 300 300 299 299 300 302 302 304 305
187 189 191 176 176 180 172 169 166 161 213 211 219 244 258 238 256 283 290 292 299 288 268 268 282 292 295 292 293 294 296 299 298 300 301 301 302 303
185 189 191 184 182 181 174 177 169 162 174 188 205 227 242 287 269 267 276 283 292 291 276 288 291 289 285 286 288 291 295 297 297 300 301 301 302 300
179 183 178 168 171 178 175 184 179 182 188 195 210 217 216 233 250 270 278 292 295 289 287 290 287 280 280 283 284 289 291 292 294 297 299 299 299 299
184 177 162 157 145 146 148 168 189 200 210 215 225 225 233 241 256 260 270 284 289 292 293 290 285 281 288 287 290 291 290 291 293 297 299 299 298 298
182 173 171 160 163 167 155 162 186 249 254 243 233 241 246 241 239 247 254 268 277 287 283 279 281 284 293 288 287 283 286 291 294 296 296 295 296 296
182 180 184 183 176 168 163 173 207 241 255 252 247 262 269 262 248 255 258 270 286 284 276 275 285 287 293 286 275 275 283 288 291 292 293 294 295 295
186 192 197 196 177 174 179 184 207 239 297 266 295 308 312 292 260 238 240 248 270 275 268 268 286 297 290 280 277 279 284 287 289 291 292 293 295 296
180 196 201 205 196 195 204 204 219 236 235 242 265 287 274 243 227 243 245 248 268 269 249 269 285 306 294 277 287 291 287 284 288 289 289 291 296 296
192 203 201 193 204 208 222 225 224 234 238 246 250 253 262 257 254 266 266 256 256 260 256 269 277 284 277 288 290 287 287 291 292 289 285 287 290 291
201 206 196 189 201 212 222 217 215 220 226 237 247 250 259 267 272 276 280 280 276 270 263 260 260 265 274 282 284 286 291 292 292 290 291 289 286 285
202 192 196 197 203 213 211 215 217 218 216 225 241 250 258 266 270 275 283 284 286 281 267 262 260 262 263 269 279 287 293 291 286 288 293 294 293 292
193 187 195 204 208 213 216 219 226 226 228 232 243 253 253 253 259 265 271 280 284 287 284 271 265 261 266 270 272 278 281 281 285 289 293 292 290 286
186 196 206 207 207 212 217 220 224 228 233 237 239 246 250 255 265 266 266 268 268 277 287 288 283 275 266 267 269 267 273 280 283 291 295 292 288 285
198 203 208 213 216 216 219 224 229 233 237 238 237 241 244 249 260 265 263 261 266 273 278 284 292 293 283 265 244 260 271 281 290 291 289 290 292 290
209 210 214 217 221 223 227 230 233 234 235 238 240 243 245 249 252 254 254 257 264 270 275 278 276 278 285 290 278 233 269 287 289 288 286 287 290 292
214 214 217 219 221 224 227 231 233 233 233 239 240 241 239 242 247 251 252 259 265 272 274 272 266 266 271 281 288 284 264 269 279 285 290 290 287 288
213 216 219 221 224 227 229 230 231 233 237 243 242 241 240 242 247 252 256 260 264 265 267 271 273 277 278 276 275 278 281 268 270 277 287 291 294 293
217 219 222 223 224 227 228 229 233 237 235 240 244 243 242 243 248 253 254 256 260 264 271 277 279 275 267 267 276 284 290 295 284 275 270 265 276 284
229 228 228 225 227 227 228 231 234 239 240 242 244 243 243 247 250 252 254 256 261 267 272 276 277 274 272 272 277 283 290 295 297 297 288 277 273 274